Regional Weather Roundup
Issued by NWS Cleveland, OH

Home | Current Version | Previous Version | Graphics & Text | Print | Product List | Glossary On
Versions: 1 2 3 4 5 6 7 8 9 10 11 12 13 14 15 16 17 18 19 20 21 22 23 24 25 26 27 28 29 30 31 32 33 34 35 36 37 38 39 40 41 42 43 44 45 46 47 48 49 50
000
ASUS41 KCLE 181800
RWRCLE
OHIO REGIONAL WEATHER ROUNDUP
NATIONAL WEATHER SERVICE WILMINGTON, OH
200 PM EDT THU SEP 18 2014

NOTE: "FAIR" INDICATES FEW OR NO CLOUDS BELOW 12,000 FEET WITH NO
SIGNIFICANT WEATHER AND/OR OBSTRUCTIONS TO VISIBILITY.

OHZ001>008-015>018-024>027-034-035-043-044-181900-
   NORTHWEST OHIO

CITY           SKY/WX    TMP DP  RH WIND       PRES   REMARKS
DEFIANCE       SUNNY     70  48  45 N8        30.13F
FINDLAY        SUNNY     71  47  42 E8        30.11F
TOLEDO EXPRESS SUNNY     70  48  45 NE5       30.14S
TOLEDO METCALF MOSUNNY   68  49  50 VRB7      30.15S
LIMA           SUNNY     70  48  45 NE6       30.12F
$$

OHZ009>014-019>023-028>033-038-089-181900-
   NORTHEAST OHIO

CITY           SKY/WX    TMP DP  RH WIND       PRES   REMARKS
CLE-HOPKINS    PTSUNNY   67  54  63 N14       30.15R
CLE-LAKEFRONT  SUNNY     65  56  72 N12       30.13R
CUY CO. ARPT   MOSUNNY   66  55  68 N14       30.13S
LORAIN-ELYRIA  MOSUNNY   69  54  58 NE9       30.14S
ASHTABULA      MOSUNNY   66  53  63 VRB7      30.13R
AKRON-CANTON   MOSUNNY   66  46  48 N7        30.12R
WOOSTER        NOT AVBL
MANSFIELD      MOSUNNY   68  45  43 NW8       30.13S
YOUNGSTOWN     MOSUNNY   67  49  52 N8        30.11S
$$

OHZ042-051>053-060>062-070>072-077>081-181900-
  SOUTHWEST OHIO

CITY           SKY/WX    TMP DP  RH WIND       PRES   REMARKS
CINC-COVINGTON MOSUNNY   71  46  40 NE3       30.09S
CINC-LUNKEN    SUNNY     72  49  44 NE7       30.09S
HAMILTON       SUNNY     71  49  45 NE9       30.10S
DAYTON         NOT AVBL
WRIGHT-PAT AFB NOT AVBL
DAYTON GENERAL SUNNY     69  48  47 E8        30.10S
WILMINGTON     SUNNY     68  46  45 VRB7      30.09F
$$

OHZ036-037-039>041-045>050-054>059-063>069-073>076-082>088-181900-
  CENTRAL AND SOUTHEAST OHIO

CITY           SKY/WX    TMP DP  RH WIND       PRES   REMARKS
COLUMBUS       MOSUNNY   73  44  35 NE10G16   30.09F
OSU AIRPORT    SUNNY     71  46  40 N12       30.10F
BOLTON FIELD   SUNNY     70  46  43 E5G17     30.10F
RICKENBACK AFB NOT AVBL
NEWARK         PTSUNNY   68  44  42 NE9       30.10F
MARION         SUNNY     70  45  40 N9        30.12F
LANCASTER      SUNNY     72  46  39 N8        30.10F
ZANESVILLE     MOSUNNY   70  44  39 N7        30.10F
NEW PHILLY     PTSUNNY   69  47  45 N7        30.12S
$$



USA.gov is the U.S. government's official web portal to all federal, state and local government web resources and services.